TAM3390 SBBR-SBCY

Flight info

Callsign TAM3390
Flight time 1h 23m
Altitude 34000
Route SIREM DCT LODOV DCT MABMA DCT SINIP
Aircraft A320/M-SDE3FGHIRWY/LB1

Departure

Time 2026-05-08 18:12
Airport Presidente Juscelino Kubitschek International Airport (SBBR)

Arrival

Time 2026-05-08 19:35
Airport Várzea Grande–Marechal Rondon International Airport (SBCY)
Time Latitude Longitude Altitude Speed Heading
2026-05-08 17:57 -15.86710 -47.91892 3463 ft 0 kts 176°
2026-05-08 18:05 -15.86696 -47.91893 3483 ft 2 kts 176°
2026-05-08 18:05 -15.86691 -47.91893 3484 ft 2 kts 176°
2026-05-08 18:07 -15.86694 -47.91899 3486 ft 2 kts 247°
2026-05-08 18:07 -15.86678 -47.91930 3464 ft 10 kts 297°
2026-05-08 18:08 -15.86643 -47.92005 3464 ft 11 kts 293°
2026-05-08 18:08 -15.86631 -47.92076 3464 ft 9 kts 272°
2026-05-08 18:08 -15.86629 -47.92135 3464 ft 7 kts 272°
2026-05-08 18:08 -15.86624 -47.92180 3464 ft 6 kts 281°
2026-05-08 18:09 -15.86606 -47.92226 3462 ft 8 kts 296°
2026-05-08 18:09 -15.86580 -47.92281 3462 ft 9 kts 297°
2026-05-08 18:09 -15.86553 -47.92340 3461 ft 9 kts 288°
2026-05-08 18:09 -15.86547 -47.92409 3461 ft 11 kts 272°
2026-05-08 18:10 -15.86551 -47.92513 3462 ft 18 kts 266°
2026-05-08 18:10 -15.86561 -47.92669 3461 ft 25 kts 266°
2026-05-08 18:10 -15.86537 -47.92777 3469 ft 7 kts 347°
2026-05-08 18:10 -15.86501 -47.92769 3468 ft 8 kts
2026-05-08 18:11 -15.86416 -47.92761 3466 ft 17 kts 17°
2026-05-08 18:11 -15.86351 -47.92655 3465 ft 22 kts 85°
2026-05-08 18:11 -15.86329 -47.92324 3468 ft 79 kts 86°
2026-05-08 18:11 -15.86279 -47.91535 3467 ft 137 kts 86°
2026-05-08 18:12 -15.86210 -47.90383 3543 ft 176 kts 86°
2026-05-08 18:12 -15.86150 -47.89128 4335 ft 173 kts 90°
2026-05-08 18:12 -15.86600 -47.87945 4662 ft 193 kts 135°
2026-05-08 18:12 -15.87863 -47.87308 4879 ft 216 kts 164°
2026-05-08 18:13 -15.89434 -47.87025 5116 ft 242 kts 172°
2026-05-08 18:13 -15.91191 -47.86823 5385 ft 266 kts 173°
2026-05-08 18:13 -15.93095 -47.86612 5870 ft 281 kts 172°
2026-05-08 18:13 -15.95065 -47.86363 6540 ft 288 kts 171°
2026-05-08 18:14 -15.97036 -47.86082 7246 ft 292 kts 170°
2026-05-08 18:14 -15.99050 -47.85771 8011 ft 293 kts 171°
2026-05-08 18:14 -16.01074 -47.85447 8788 ft 296 kts 173°
2026-05-08 18:14 -16.03134 -47.85533 9489 ft 300 kts 195°
2026-05-08 18:15 -16.05037 -47.86412 10196 ft 301 kts 218°
2026-05-08 18:15 -16.06528 -47.87992 10543 ft 317 kts 240°
2026-05-08 18:15 -16.07516 -47.90121 10696 ft 338 kts 248°
2026-05-08 18:15 -16.08477 -47.92407 11113 ft 350 kts 248°
2026-05-08 18:16 -16.09459 -47.94752 11694 ft 356 kts 247°
2026-05-08 18:16 -16.10458 -47.97125 12333 ft 360 kts 248°
2026-05-08 18:16 -16.11475 -47.99523 12942 ft 365 kts 247°
2026-05-08 18:16 -16.12512 -48.01953 13520 ft 370 kts 246°
2026-05-08 18:17 -16.13562 -48.04405 14090 ft 373 kts 247°
2026-05-08 18:17 -16.14608 -48.06846 14637 ft 375 kts 247°
2026-05-08 18:17 -16.15676 -48.09338 15163 ft 379 kts 246°
2026-05-08 18:17 -16.16756 -48.11862 15649 ft 383 kts 246°
2026-05-08 18:18 -16.17842 -48.14404 16187 ft 386 kts 246°
2026-05-08 18:18 -16.18936 -48.16967 16711 ft 389 kts 246°
2026-05-08 18:18 -16.20037 -48.19549 17206 ft 392 kts 246°
2026-05-08 18:18 -16.21149 -48.22155 17674 ft 396 kts 246°
2026-05-08 18:19 -16.22269 -48.24781 18214 ft 398 kts 246°
2026-05-08 18:19 -16.23396 -48.27409 18672 ft 399 kts 244°
2026-05-08 18:19 -16.24814 -48.29903 19085 ft 401 kts 233°
2026-05-08 18:19 -16.26629 -48.32123 19495 ft 404 kts 227°
2026-05-08 18:20 -16.28531 -48.34285 19919 ft 406 kts 227°
2026-05-08 18:20 -16.30440 -48.36457 20336 ft 408 kts 227°
2026-05-08 18:20 -16.32356 -48.38644 20743 ft 410 kts 228°
2026-05-08 18:20 -16.34281 -48.40847 21152 ft 412 kts 228°
2026-05-08 18:21 -16.36216 -48.43060 21559 ft 414 kts 228°
2026-05-08 18:21 -16.38157 -48.45286 21962 ft 416 kts 228°
2026-05-08 18:21 -16.40103 -48.47524 22355 ft 418 kts 229°
2026-05-08 18:21 -16.42063 -48.49776 22746 ft 420 kts 228°
2026-05-08 18:22 -16.44036 -48.52037 23129 ft 422 kts 229°
2026-05-08 18:22 -16.46018 -48.54310 23505 ft 425 kts 229°
2026-05-08 18:22 -16.48007 -48.56591 23826 ft 426 kts 230°
2026-05-08 18:22 -16.49977 -48.58848 24149 ft 428 kts 229°
2026-05-08 18:23 -16.51985 -48.61147 24500 ft 428 kts 229°
2026-05-08 18:23 -16.53980 -48.63465 24850 ft 429 kts 231°
2026-05-08 18:23 -16.55686 -48.66016 25164 ft 429 kts 241°
2026-05-08 18:23 -16.57060 -48.68770 25502 ft 429 kts 244°
2026-05-08 18:24 -16.58415 -48.71545 25834 ft 430 kts 244°
2026-05-08 18:24 -16.59538 -48.74427 26128 ft 430 kts 257°
2026-05-08 18:24 -16.59918 -48.77517 26412 ft 431 kts 268°
2026-05-08 18:24 -16.60040 -48.80648 26719 ft 433 kts 268°
2026-05-08 18:25 -16.60153 -48.83794 27026 ft 434 kts 268°
2026-05-08 18:25 -16.60257 -48.86900 27337 ft 436 kts 268°
2026-05-08 18:25 -16.60361 -48.90060 27657 ft 437 kts 268°
2026-05-08 18:25 -16.60467 -48.93235 27976 ft 439 kts 268°
2026-05-08 18:26 -16.60574 -48.96422 28297 ft 440 kts 268°
2026-05-08 18:26 -16.60684 -48.99614 28611 ft 441 kts 268°
2026-05-08 18:26 -16.60797 -49.02820 28918 ft 443 kts 268°
2026-05-08 18:26 -16.60910 -49.06031 29215 ft 444 kts 268°
2026-05-08 18:27 -16.61021 -49.09252 29498 ft 445 kts 268°
2026-05-08 18:27 -16.61094 -49.11395 29685 ft 446 kts 268°
2026-05-08 18:27 -16.61240 -49.15732 30052 ft 448 kts 268°
2026-05-08 18:27 -16.61351 -49.18981 30289 ft 449 kts 268°
2026-05-08 18:28 -16.61463 -49.22240 30524 ft 450 kts 268°
2026-05-08 18:28 -16.61573 -49.25511 30755 ft 452 kts 268°
2026-05-08 18:28 -16.61679 -49.28783 31068 ft 450 kts 268°
2026-05-08 18:28 -16.61782 -49.31993 31419 ft 448 kts 268°
2026-05-08 18:29 -16.61887 -49.35236 31766 ft 446 kts 268°
2026-05-08 18:29 -16.61993 -49.38470 32081 ft 445 kts 268°
2026-05-08 18:29 -16.62101 -49.41692 32373 ft 445 kts 268°
2026-05-08 18:29 -16.62207 -49.44909 32691 ft 443 kts 268°
2026-05-08 18:30 -16.62313 -49.48119 33015 ft 442 kts 269°
2026-05-08 18:30 -16.62420 -49.51318 33340 ft 441 kts 269°
2026-05-08 18:30 -16.62523 -49.54512 33679 ft 439 kts 269°
2026-05-08 18:30 -16.62625 -49.57693 33909 ft 438 kts 269°
2026-05-08 18:31 -16.62827 -49.63944 33942 ft 431 kts 269°
2026-05-08 18:31 -16.63017 -49.70187 33941 ft 430 kts 269°
2026-05-08 18:32 -16.63208 -49.76422 33944 ft 430 kts 269°
2026-05-08 18:32 -16.63406 -49.82652 33939 ft 430 kts 269°
2026-05-08 18:33 -16.63602 -49.88877 33940 ft 429 kts 269°
2026-05-08 18:33 -16.63788 -49.95103 33939 ft 429 kts 269°
2026-05-08 18:34 -16.63972 -50.01327 33941 ft 429 kts 269°
2026-05-08 18:34 -16.64152 -50.07547 33942 ft 429 kts 269°
2026-05-08 18:35 -16.64341 -50.13722 33944 ft 429 kts 269°
2026-05-08 18:35 -16.64529 -50.19941 33944 ft 428 kts 269°
2026-05-08 18:36 -16.64709 -50.26150 33941 ft 428 kts 269°
2026-05-08 18:36 -16.64879 -50.32357 33940 ft 428 kts 269°
2026-05-08 18:37 -16.65051 -50.38559 33944 ft 427 kts 269°
2026-05-08 18:37 -16.65222 -50.44759 33944 ft 427 kts 269°
2026-05-08 18:38 -16.65398 -50.50910 33948 ft 427 kts 269°
2026-05-08 18:38 -16.65573 -50.57101 33952 ft 427 kts 270°
2026-05-08 18:39 -16.65740 -50.63280 33946 ft 426 kts 270°
2026-05-08 18:39 -16.65903 -50.69450 33958 ft 425 kts 269°
2026-05-08 18:40 -16.66060 -50.75607 33932 ft 425 kts 269°
2026-05-08 18:40 -16.66223 -50.81766 33930 ft 425 kts 269°
2026-05-08 18:41 -16.66383 -50.87937 33933 ft 426 kts 269°
2026-05-08 18:41 -16.66544 -50.94107 33944 ft 425 kts 269°
2026-05-08 18:42 -16.66703 -51.00268 33944 ft 424 kts 269°
2026-05-08 18:42 -16.66854 -51.06416 33943 ft 424 kts 269°
2026-05-08 18:43 -16.67001 -51.12557 33948 ft 423 kts 269°
2026-05-08 18:43 -16.67152 -51.18657 33943 ft 423 kts 269°
2026-05-08 18:44 -16.67306 -51.24797 33938 ft 423 kts 269°
2026-05-08 18:44 -16.67448 -51.30935 33937 ft 423 kts 269°
2026-05-08 18:45 -16.67591 -51.37073 33946 ft 423 kts 269°
2026-05-08 18:45 -16.67735 -51.43200 33948 ft 422 kts 269°
2026-05-08 18:46 -16.67877 -51.49320 33944 ft 422 kts 269°
2026-05-08 18:46 -16.67990 -51.54399 33941 ft 421 kts 269°
2026-05-08 18:47 -16.68128 -51.60504 33959 ft 420 kts 269°
2026-05-08 18:47 -16.68260 -51.66574 33967 ft 417 kts 269°
2026-05-08 18:48 -16.68390 -51.72617 33959 ft 416 kts 269°
2026-05-08 18:48 -16.68521 -51.78633 33957 ft 415 kts 269°
2026-05-08 18:49 -16.68649 -51.84613 33952 ft 414 kts 269°
2026-05-08 18:49 -16.68777 -51.90614 33947 ft 413 kts 269°
2026-05-08 18:50 -16.68901 -51.96607 33939 ft 413 kts 269°
2026-05-08 18:50 -16.69021 -52.02597 33937 ft 413 kts 269°
2026-05-08 18:51 -16.69143 -52.08590 33940 ft 413 kts 269°
2026-05-08 18:51 -16.69259 -52.14582 33927 ft 413 kts 269°
2026-05-08 18:52 -16.69378 -52.20581 33920 ft 414 kts 269°
2026-05-08 18:52 -16.69493 -52.26543 33921 ft 414 kts 269°
2026-05-08 18:53 -16.69606 -52.32552 33923 ft 414 kts 269°
2026-05-08 18:53 -16.69718 -52.38556 33921 ft 414 kts 269°
2026-05-08 18:54 -16.69828 -52.44560 33921 ft 414 kts 269°
2026-05-08 18:54 -16.69936 -52.50566 33916 ft 414 kts 269°
2026-05-08 18:55 -16.70099 -52.59566 33921 ft 414 kts 269°
2026-05-08 18:56 -16.70200 -52.65529 33917 ft 413 kts 269°
2026-05-08 18:56 -16.70302 -52.71524 33915 ft 413 kts 269°
2026-05-08 18:57 -16.70403 -52.77519 33919 ft 413 kts 269°
2026-05-08 18:57 -16.70502 -52.83499 33940 ft 411 kts 269°
2026-05-08 18:58 -16.70594 -52.89453 33939 ft 409 kts 269°
2026-05-08 18:58 -16.70683 -52.95383 33937 ft 408 kts 269°
2026-05-08 18:59 -16.70774 -53.01301 33940 ft 407 kts 269°
2026-05-08 18:59 -16.70870 -53.07206 33937 ft 406 kts 269°
2026-05-08 19:00 -16.70690 -53.13088 33932 ft 405 kts 275°
2026-05-08 19:00 -16.70232 -53.18906 33928 ft 405 kts 275°
2026-05-08 19:01 -16.69773 -53.24768 33924 ft 405 kts 275°
2026-05-08 19:01 -16.69311 -53.30625 33931 ft 405 kts 275°
2026-05-08 19:02 -16.68848 -53.36484 33929 ft 405 kts 275°
2026-05-08 19:02 -16.68385 -53.42336 33914 ft 405 kts 275°
2026-05-08 19:03 -16.67915 -53.48197 33904 ft 405 kts 275°
2026-05-08 19:03 -16.67451 -53.54019 33905 ft 406 kts 275°
2026-05-08 19:04 -16.66987 -53.59890 33903 ft 406 kts 275°
2026-05-08 19:04 -16.66517 -53.65759 33901 ft 406 kts 275°
2026-05-08 19:05 -16.66041 -53.71629 33903 ft 406 kts 275°
2026-05-08 19:05 -16.65564 -53.77495 33912 ft 406 kts 275°
2026-05-08 19:06 -16.65094 -53.83363 33908 ft 406 kts 275°
2026-05-08 19:06 -16.64627 -53.89192 33906 ft 406 kts 275°
2026-05-08 19:07 -16.64134 -53.95049 33900 ft 405 kts 275°
2026-05-08 19:07 -16.63609 -54.00902 33900 ft 405 kts 275°
2026-05-08 19:08 -16.63106 -54.06755 33896 ft 405 kts 275°
2026-05-08 19:08 -16.62664 -54.12616 33898 ft 405 kts 275°
2026-05-08 19:09 -16.62213 -54.18480 33886 ft 405 kts 275°
2026-05-08 19:09 -16.61730 -54.24331 33886 ft 405 kts 275°
2026-05-08 19:10 -16.61235 -54.30146 33879 ft 405 kts 275°
2026-05-08 19:10 -16.60745 -54.35993 33876 ft 405 kts 275°
2026-05-08 19:11 -16.60257 -54.41835 33872 ft 405 kts 275°
2026-05-08 19:11 -16.59766 -54.47690 33869 ft 405 kts 275°
2026-05-08 19:12 -16.59271 -54.53545 33874 ft 405 kts 275°
2026-05-08 19:12 -16.58775 -54.59406 33873 ft 405 kts 275°
2026-05-08 19:13 -16.57665 -54.65162 33479 ft 413 kts 290°
2026-05-08 19:13 -16.56418 -54.67888 32894 ft 418 kts 297°
2026-05-08 19:13 -16.55032 -54.70559 32213 ft 420 kts 297°
2026-05-08 19:13 -16.53653 -54.73225 31131 ft 425 kts 297°
2026-05-08 19:14 -16.52263 -54.75928 30157 ft 420 kts 297°
2026-05-08 19:14 -16.50896 -54.78601 29184 ft 414 kts 297°
2026-05-08 19:14 -16.49563 -54.81216 28520 ft 401 kts 297°
2026-05-08 19:14 -16.48277 -54.83739 28099 ft 390 kts 297°
2026-05-08 19:15 -16.47010 -54.86213 27646 ft 385 kts 298°
2026-05-08 19:15 -16.45748 -54.88662 27211 ft 381 kts 298°
2026-05-08 19:15 -16.44504 -54.91076 26790 ft 376 kts 298°
2026-05-08 19:15 -16.43275 -54.93468 26373 ft 372 kts 298°
2026-05-08 19:16 -16.42061 -54.95833 25956 ft 368 kts 298°
2026-05-08 19:16 -16.40860 -54.98176 25544 ft 365 kts 298°
2026-05-08 19:16 -16.39671 -55.00498 25125 ft 362 kts 298°
2026-05-08 19:16 -16.38491 -55.02806 24700 ft 360 kts 298°
2026-05-08 19:17 -16.37315 -55.05098 24267 ft 358 kts 298°
2026-05-08 19:17 -16.36139 -55.07385 23829 ft 357 kts 298°
2026-05-08 19:17 -16.34982 -55.09625 23371 ft 356 kts 298°
2026-05-08 19:17 -16.33796 -55.11920 22886 ft 354 kts 298°
2026-05-08 19:18 -16.32638 -55.14171 22452 ft 351 kts 298°
2026-05-08 19:18 -16.31488 -55.16409 22011 ft 349 kts 298°
2026-05-08 19:18 -16.30359 -55.18601 21578 ft 347 kts 298°
2026-05-08 19:18 -16.29217 -55.20813 21151 ft 346 kts 298°
2026-05-08 19:19 -16.28079 -55.23013 20720 ft 345 kts 298°
2026-05-08 19:19 -16.26943 -55.25209 20272 ft 345 kts 298°
2026-05-08 19:19 -16.25803 -55.27409 19811 ft 345 kts 298°
2026-05-08 19:19 -16.24665 -55.29611 19353 ft 345 kts 298°
2026-05-08 19:20 -16.23531 -55.31809 18908 ft 345 kts 298°
2026-05-08 19:20 -16.23150 -55.32549 18848 ft 342 kts 298°
2026-05-08 19:20 -16.21334 -55.36077 18654 ft 323 kts 298°
2026-05-08 19:20 -16.20299 -55.38083 18538 ft 305 kts 298°
2026-05-08 19:21 -16.19322 -55.39976 18337 ft 290 kts 298°
2026-05-08 19:21 -16.18358 -55.41839 17827 ft 295 kts 298°
2026-05-08 19:21 -16.17388 -55.43716 17486 ft 294 kts 298°
2026-05-08 19:21 -16.16419 -55.45586 17191 ft 293 kts 299°
2026-05-08 19:22 -16.15454 -55.47443 16903 ft 291 kts 299°
2026-05-08 19:22 -16.14498 -55.49288 16602 ft 289 kts 298°
2026-05-08 19:22 -16.13548 -55.51126 16326 ft 287 kts 299°
2026-05-08 19:22 -16.12602 -55.52956 15959 ft 289 kts 299°
2026-05-08 19:23 -16.11637 -55.54819 15459 ft 296 kts 299°
2026-05-08 19:23 -16.10651 -55.56724 14971 ft 302 kts 299°
2026-05-08 19:23 -16.09668 -55.58622 14833 ft 294 kts 299°
2026-05-08 19:23 -16.08707 -55.60475 14543 ft 291 kts 299°
2026-05-08 19:24 -16.07758 -55.62310 14145 ft 285 kts 299°
2026-05-08 19:24 -16.06828 -55.64103 13738 ft 279 kts 299°
2026-05-08 19:24 -16.05925 -55.65845 13285 ft 275 kts 299°
2026-05-08 19:24 -16.05023 -55.67584 12832 ft 272 kts 299°
2026-05-08 19:25 -16.04125 -55.69312 12298 ft 271 kts 299°
2026-05-08 19:25 -16.03232 -55.71028 11784 ft 269 kts 299°
2026-05-08 19:25 -16.02345 -55.72734 11275 ft 268 kts 299°
2026-05-08 19:25 -16.01464 -55.74433 10775 ft 266 kts 298°
2026-05-08 19:26 -16.00587 -55.76126 10287 ft 265 kts 298°
2026-05-08 19:26 -15.99715 -55.77807 9801 ft 263 kts 298°
2026-05-08 19:26 -15.98850 -55.79471 9264 ft 260 kts 299°
2026-05-08 19:26 -15.97997 -55.81117 8739 ft 257 kts 299°
2026-05-08 19:27 -15.97150 -55.82749 8219 ft 256 kts 300°
2026-05-08 19:27 -15.96309 -55.84366 7713 ft 253 kts 300°
2026-05-08 19:27 -15.95477 -55.85964 7203 ft 251 kts 300°
2026-05-08 19:27 -15.94652 -55.87545 6865 ft 248 kts 301°
2026-05-08 19:28 -15.93829 -55.89121 6504 ft 247 kts 301°
2026-05-08 19:28 -15.93010 -55.90690 6110 ft 246 kts 301°
2026-05-08 19:28 -15.92192 -55.92259 5697 ft 249 kts 301°
2026-05-08 19:28 -15.91362 -55.93850 5286 ft 251 kts 301°
2026-05-08 19:29 -15.90529 -55.95445 4865 ft 252 kts 301°
2026-05-08 19:29 -15.89697 -55.97045 4509 ft 247 kts 301°
2026-05-08 19:29 -15.88881 -55.98497 4455 ft 229 kts 310°
2026-05-08 19:29 -15.87777 -55.99601 4383 ft 214 kts 327°
2026-05-08 19:30 -15.86528 -56.00362 4297 ft 203 kts 333°
2026-05-08 19:30 -15.85296 -56.01025 4209 ft 197 kts 334°
2026-05-08 19:30 -15.84078 -56.01672 4141 ft 196 kts 334°
2026-05-08 19:30 -15.82864 -56.02318 4003 ft 195 kts 333°
2026-05-08 19:31 -15.81706 -56.02935 3797 ft 180 kts 333°
2026-05-08 19:31 -15.80629 -56.03509 3568 ft 168 kts 333°
2026-05-08 19:31 -15.79621 -56.04045 3371 ft 157 kts 333°
2026-05-08 19:31 -15.78672 -56.04551 3179 ft 151 kts 333°
2026-05-08 19:32 -15.77743 -56.05045 2989 ft 149 kts 333°
2026-05-08 19:32 -15.76821 -56.05536 2797 ft 149 kts 334°
2026-05-08 19:32 -15.75902 -56.06025 2614 ft 149 kts 334°
2026-05-08 19:32 -15.74981 -56.06515 2417 ft 148 kts 334°
2026-05-08 19:33 -15.74064 -56.07003 2237 ft 148 kts 334°
2026-05-08 19:33 -15.73155 -56.07487 2051 ft 146 kts 333°
2026-05-08 19:33 -15.72253 -56.07967 1865 ft 146 kts 333°
2026-05-08 19:33 -15.71350 -56.08447 1676 ft 146 kts 333°
2026-05-08 19:34 -15.70461 -56.08920 1498 ft 145 kts 333°
2026-05-08 19:34 -15.69550 -56.09405 1325 ft 146 kts 334°
2026-05-08 19:34 -15.68653 -56.09882 1156 ft 145 kts 335°
2026-05-08 19:34 -15.67754 -56.10360 976 ft 146 kts 335°
2026-05-08 19:35 -15.66858 -56.10835 765 ft 148 kts 331°
2026-05-08 19:35 -15.65948 -56.11315 615 ft 142 kts 332°
2026-05-08 19:35 -15.65320 -56.11657 603 ft 42 kts 332°
2026-05-08 19:35 -15.65200 -56.11744 603 ft 10 kts 270°
2026-05-08 19:36 -15.65219 -56.11803 615 ft 7 kts 246°
2026-05-08 19:36 -15.65218 -56.11833 611 ft 6 kts 294°
2026-05-08 19:36 -15.65184 -56.11860 613 ft 7 kts 330°
2026-05-08 19:36 -15.65136 -56.11885 608 ft 9 kts 334°
2026-05-08 19:37 -15.65075 -56.11916 607 ft 11 kts 333°
2026-05-08 19:37 -15.65003 -56.11954 607 ft 12 kts 333°
2026-05-08 19:37 -15.64974 -56.12004 604 ft 6 kts 243°
2026-05-08 19:37 -15.64982 -56.12021 608 ft 2 kts 243°
2026-05-08 19:38 -15.64983 -56.12022 608 ft 0 kts 243°